Location: Coopersdale
(40.3556°N, 78.9372°W)
Time: 18:24:33
(UTC+00:00)

Transit 4A - Pass Details

Date: 28 January 2021
Orbit: 866 x 978 km, 66.8° (Epoch: 25 February)

Event Time Altitude Azimuth Distance (km) Brightness Sun altitude
Rises 23:23:50 0° 215° (SW) 3,658 11.9 -10.6°
Reaches altitude 10° 23:26:25 10° 218° (SW) 2,718 11.2 -11.1°
Maximum altitude 23:32:46 69° 301° (WNW) 1,045 8.3 -12.2°
Drops below altitude 10° 23:39:08 10° 25° (NNE) 2,718 10.0 -13.4°
Enters shadow 23:40:59 - 27° (NNE) 3,394 10.5 -13.8°
Sets 23:41:42 0° 28° (NNE) 3,658 - -13.9°
